| time (UTC) | temp F | wind direction | speed MPH | gust MPH | rain 1hr in | rain 24hr in | rain mn in | humidity % | barometer mb |
| 20260902142705 | 68 | 252 | 7.0 | 21.0 | 0.00 | 0.00 | 0.00 | 49 | 1001.3 |
| 20260902141803 | 68 | 232 | 10.0 | 20.0 | 0.00 | 0.00 | 0.00 | 48 | 1001.5 |
| 20260902140926 | 68 | 225 | 6.0 | 17.0 | 0.00 | 0.00 | 0.00 | 50 | 1001.4 |
| 20260902140004 | 68 | 224 | 11.0 | 25.0 | 0.00 | 0.00 | 0.00 | 51 | 1001.4 |
| 20260902135424 | 69 | 246 | 10.0 | 20.0 | 0.00 | 0.00 | 0.00 | 55 | 1001.6 |
| 20260902134526 | 68 | 234 | 11.0 | 20.0 | 0.00 | 0.00 | 0.00 | 57 | 1001.5 |
| 20260902133603 | 68 | 256 | 10.0 | 20.0 | 0.00 | 0.00 | 0.00 | 59 | 1001.4 |
| 20260902132703 | 68 | 248 | 8.0 | 17.0 | 0.00 | 0.00 | 0.00 | 59 | 1001.5 |
| 20260902131803 | 67 | 230 | 7.0 | 17.0 | 0.00 | 0.00 | 0.00 | 60 | 1001.3 |
| 20260902130903 | 68 | 221 | 8.0 | 15.0 | 0.00 | 0.00 | 0.00 | 60 | 1001.3 |
| 20260902130004 | 67 | 193 | 7.0 | 16.0 | 0.00 | 0.00 | 0.00 | 61 | 1001.5 |
| 20260902125404 | 68 | 200 | 11.0 | 16.0 | 0.00 | 0.00 | 0.00 | 58 | 1001.3 |
| 20260902124526 | 68 | 253 | 6.0 | 14.0 | 0.00 | 0.00 | 0.00 | 60 | 1001.3 |
| 20260902123625 | 67 | 239 | 4.0 | 9.0 | 0.00 | 0.00 | 0.00 | 61 | 1001.4 |
| 20260902122703 | 68 | 215 | 6.0 | 13.0 | 0.00 | 0.00 | 0.00 | 60 | 1001.4 |
| 20260902121805 | 68 | 186 | 7.0 | 16.0 | 0.00 | 0.00 | 0.00 | 60 | 1001.4 |
| 20260902120903 | 67 | 226 | 6.0 | 15.0 | 0.00 | 0.00 | 0.00 | 60 | 1001.6 |
| 20260902120004 | 67 | 239 | 8.0 | 18.0 | 0.00 | 0.00 | 0.00 | 60 | 1001.7 |
| 20260902115404 | 68 | 230 | 13.0 | 18.0 | 0.00 | 0.00 | 0.00 | 58 | 1001.8 |
| 20260902114505 | 68 | 216 | 3.0 | 13.0 | 0.00 | 0.00 | 0.00 | 58 | 1001.8 |
| 20260902113603 | 69 | 241 | 7.0 | 16.0 | 0.00 | 0.00 | 0.00 | 57 | 1001.8 |
| 20260902112703 | 67 | 239 | 8.0 | 16.0 | 0.00 | 0.00 | 0.00 | 62 | 1002.0 |
| 20260902111803 | 66 | 236 | 4.0 | 11.0 | 0.00 | 0.00 | 0.00 | 63 | 1002.1 |
| 20260902110905 | 67 | 231 | 4.0 | 14.0 | 0.00 | 0.00 | 0.00 | 65 | 1002.2 |
| 20260902110005 | 66 | 245 | 2.0 | 8.0 | 0.00 | 0.00 | 0.00 | 68 | 1002.1 |
| 20260902105403 | 66 | 269 | 2.0 | 8.0 | 0.00 | 0.00 | 0.00 | 69 | 1002.3 |
| 20260902104505 | 65 | 289 | 3.0 | 9.0 | 0.00 | 0.00 | 0.00 | 70 | 1002.4 |
| 20260902103626 | 66 | 272 | 5.0 | 9.0 | 0.00 | 0.00 | 0.00 | 69 | 1002.4 |
| 20260902102703 | 67 | 234 | 4.0 | 9.0 | 0.00 | 0.00 | 0.00 | 66 | 1002.4 |
| 20260902101804 | 67 | 217 | 5.0 | 9.0 | 0.00 | 0.00 | 0.00 | 66 | 1002.8 |
| 20260902100903 | 65 | 227 | 5.0 | 11.0 | 0.00 | 0.00 | 0.00 | 69 | 1002.7 |
| 20260902100024 | 65 | 240 | 5.0 | 18.0 | 0.00 | 0.00 | 0.00 | 70 | 1002.6 |
| 20260902095403 | 64 | 243 | 7.0 | 18.0 | 0.00 | 0.00 | 0.00 | 72 | 1002.6 |
| 20260902094526 | 63 | 238 | 8.0 | 14.0 | 0.00 | 0.00 | 0.00 | 73 | 1002.6 |
| 20260902093605 | 63 | 246 | 5.0 | 11.0 | 0.00 | 0.00 | 0.00 | 74 | 1002.7 |
| 20260902092705 | 62 | 245 | 4.0 | 14.0 | 0.00 | 0.00 | 0.00 | 75 | 1003.1 |
| 20260902091803 | 63 | 228 | 6.0 | 14.0 | 0.00 | 0.00 | 0.00 | 74 | 1003.0 |
| 20260902090905 | 63 | 239 | 7.0 | 17.0 | 0.00 | 0.00 | 0.00 | 74 | 1002.7 |
| 20260902090004 | 64 | 223 | 5.0 | 14.0 | 0.00 | 0.00 | 0.00 | 72 | 1002.8 |
| 20260902085403 | 63 | 235 | 6.0 | 11.0 | 0.00 | 0.00 | 0.00 | 73 | 1002.9 |
| 20260902084503 | 63 | 238 | 4.0 | 14.0 | 0.00 | 0.00 | 0.00 | 73 | 1002.9 |
| 20260902083626 | 63 | 236 | 4.0 | 11.0 | 0.00 | 0.00 | 0.00 | 73 | 1002.8 |
| 20260902082703 | 63 | 238 | 5.0 | 9.0 | 0.00 | 0.00 | 0.00 | 73 | 1002.7 |
| 20260902081803 | 64 | 238 | 4.0 | 11.0 | 0.00 | 0.00 | 0.00 | 73 | 1002.8 |
| 20260902080903 | 62 | 258 | 5.0 | 11.0 | 0.00 | 0.00 | 0.00 | 76 | 1002.8 |
| 20260902080005 | 62 | 210 | 5.0 | 11.0 | 0.00 | 0.00 | 0.00 | 76 | 1002.6 |
| 20260902075403 | 62 | 162 | 2.0 | 4.0 | 0.00 | 0.00 | 0.00 | 82 | 1002.7 |
| 20260902074503 | 61 | 138 | 2.0 | 4.0 | 0.00 | 0.00 | 0.00 | 86 | 1002.5 |
| 20260902073603 | 60 | 133 | 2.0 | 4.0 | 0.00 | 0.00 | 0.00 | 89 | 1002.7 |
| 20260902072703 | 60 | 121 | 2.0 | 6.0 | 0.00 | 0.00 | 0.00 | 89 | 1002.6 |
| 20260902071803 | 59 | 146 | 4.0 | 6.0 | 0.00 | 0.00 | 0.00 | 89 | 1003.0 |
| 20260902070903 | 60 | 146 | 2.0 | 6.0 | 0.00 | 0.00 | 0.00 | 88 | 1002.9 |
| 20260902070007 | 59 | 144 | 3.0 | 6.0 | 0.00 | 0.00 | 0.00 | 89 | 1002.8 |
| 20260902065403 | 59 | 130 | 3.0 | 6.0 | 0.00 | 0.00 | 0.00 | 89 | 1002.7 |
| 20260902064503 | 58 | 134 | 3.0 | 4.0 | 0.00 | 0.00 | 0.00 | 91 | 1002.8 |
| 20260902063603 | 58 | 130 | 2.0 | 4.0 | 0.00 | 0.00 | 0.00 | 92 | 1002.6 |
| 20260902062703 | 58 | 124 | 2.0 | 4.0 | 0.00 | 0.00 | 0.00 | 93 | 1002.7 |
| 20260902061803 | 57 | 133 | 2.0 | 4.0 | 0.00 | 0.00 | 0.00 | 93 | 1002.9 |
| 20260902060905 | 58 | 147 | 2.0 | 4.0 | 0.00 | 0.00 | 0.00 | 92 | 1002.8 |
| 20260902060005 | 58 | 143 | 2.0 | 4.0 | 0.00 | 0.00 | 0.00 | 91 | 1002.9 |
| 20260902055405 | 58 | 128 | 2.0 | 4.0 | 0.00 | 0.00 | 0.00 | 90 | 1002.8 |
| 20260902054505 | 58 | 112 | 1.0 | 2.0 | 0.00 | 0.00 | 0.00 | 91 | 1002.8 |
| 20260902053624 | 58 | 131 | 1.0 | 2.0 | 0.00 | 0.00 | 0.00 | 91 | 1002.6 |
| 20260902052703 | 57 | 135 | 1.0 | 2.0 | 0.00 | 0.00 | 0.00 | 92 | 1002.8 |
| 20260902051824 | 57 | 126 | 1.0 | 2.0 | 0.00 | 0.00 | 0.00 | 92 | 1002.8 |
| 20260902050903 | 57 | 112 | 1.0 | 2.0 | 0.00 | 0.00 | 0.00 | 93 | 1003.0 |
| 20260902050005 | 56 | 112 | 0.0 | 4.0 | 0.00 | 0.00 | 0.00 | 95 | 1002.9 |
| 20260902045403 | 56 | 121 | 1.0 | 4.0 | 0.00 | 0.00 | 0.00 | 96 | 1003.0 |
| 20260902044503 | 56 | 145 | 0.0 | 2.0 | 0.00 | 0.00 | 0.00 | 95 | 1003.1 |
| 20260902043605 | 56 | 157 | 1.0 | 2.0 | 0.00 | 0.00 | 0.00 | 95 | 1003.0 |
| 20260902042703 | 56 | 161 | 2.0 | 4.0 | 0.00 | 0.00 | 0.00 | 95 | 1002.9 |
| 20260902041826 | 56 | 171 | 3.0 | 4.0 | 0.00 | 0.00 | 0.00 | 96 | 1002.7 |
| 20260902040903 | 56 | 199 | 2.0 | 6.0 | 0.00 | 0.00 | 0.00 | 96 | 1003.0 |
| 20260902040003 | 56 | 171 | 3.0 | 4.0 | 0.00 | 0.00 | 0.00 | 97 | 1002.8 |
| 20260902035405 | 56 | 180 | 2.0 | 4.0 | 0.00 | 0.00 | 0.00 | 97 | 1003.0 |
| 20260902034505 | 56 | 180 | 2.0 | 4.0 | 0.00 | 0.00 | 0.00 | 97 | 1002.9 |
| 20260902033624 | 56 | 174 | 1.0 | 4.0 | 0.00 | 0.00 | 0.00 | 98 | 1002.9 |
| 20260902032703 | 55 | 172 | 3.0 | 4.0 | 0.00 | 0.00 | 0.00 | 99 | 1003.0 |
| 20260902031803 | 55 | 180 | 0.0 | 2.0 | 0.00 | 0.00 | 0.00 | 99 | 1003.1 |
| 20260902030903 | 54 | 180 | 0.0 | 2.0 | 0.00 | 0.00 | 0.00 | 99 | 1003.1 |
| 20260902030003 | 54 | 180 | 2.0 | 2.0 | 0.00 | 0.00 | 0.00 | 98 | 1003.3 |
| 20260902025403 | 54 | 180 | 0.0 | 2.0 | 0.00 | 0.00 | 0.00 | 98 | 1003.4 |
| 20260902024503 | 54 | 180 | 0.0 | 2.0 | 0.00 | 0.00 | 0.00 | 98 | 1003.4 |
| 20260902023626 | 54 | 180 | 2.0 | 2.0 | 0.00 | 0.00 | 0.00 | 98 | 1003.6 |
| 20260902022703 | 53 | 180 | 0.0 | 2.0 | 0.00 | 0.00 | 0.00 | 98 | 1003.5 |
| 20260902021803 | 54 | 180 | 0.0 | 4.0 | 0.00 | 0.00 | 0.00 | 98 | 1003.4 |
| 20260902020903 | 54 | 143 | 2.0 | 4.0 | 0.00 | 0.00 | 0.00 | 99 | 1003.5 |
| 20260902020003 | 53 | 112 | 2.0 | 4.0 | 0.00 | 0.00 | 0.00 | 99 | 1003.6 |
| 20260902015403 | 53 | 105 | 2.0 | 2.0 | 0.00 | 0.00 | 0.00 | 99 | 1003.5 |
| 20260902014503 | 51 | 90 | 1.0 | 2.0 | 0.00 | 0.00 | 0.00 | 99 | 1003.6 |
| 20260902013603 | 51 | 112 | 0.0 | 2.0 | 0.00 | 0.00 | 0.00 | 99 | 1003.5 |
| 20260902012724 | 53 | 112 | 1.0 | 2.0 | 0.00 | 0.00 | 0.00 | 99 | 1003.6 |
| 20260902011803 | 53 | 109 | 1.0 | 2.0 | 0.00 | 0.00 | 0.00 | 98 | 1003.7 |
| 20260902010903 | 51 | 0 | 0.0 | 0.0 | 0.00 | 0.00 | 0.00 | 98 | 1003.6 |
| 20260902010005 | 51 | 0 | 0.0 | 0.0 | 0.00 | 0.00 | 0.00 | 98 | 1003.3 |
| 20260902005403 | 51 | 90 | 0.0 | 2.0 | 0.00 | 0.00 | 0.00 | 97 | 1003.6 |
| 20260902004505 | 51 | 95 | 0.0 | 4.0 | 0.00 | 0.00 | 0.00 | 97 | 1003.6 |
| 20260902003606 | 51 | 90 | 0.0 | 2.0 | 0.00 | 0.00 | 0.00 | 97 | 1003.4 |
| 20260902002724 | 51 | 0 | 0.0 | 0.0 | 0.00 | 0.00 | 0.00 | 96 | 1003.5 |
| 20260902001803 | 51 | 0 | 0.0 | 0.0 | 0.00 | 0.00 | 0.00 | 96 | 1003.7 |
| 20260902000904 | 51 | 0 | 0.0 | 0.0 | 0.00 | 0.00 | 0.00 | 95 | 1003.8 |
| 20260902000005 | 52 | 0 | 0.0 | 0.0 | 0.00 | 0.00 | 0.00 | 96 | 1003.7 |
| 20260901235403 | 52 | 0 | 0.0 | 0.0 | 0.00 | 0.00 | 0.00 | 95 | 1003.3 |
| 20260901234505 | 52 | 0 | 0.0 | 0.0 | 0.00 | 0.00 | 0.00 | 95 | 1003.6 |
| 20260901233605 | 52 | 0 | 0.0 | 0.0 | 0.00 | 0.00 | 0.00 | 95 | 1003.6 |
| 20260901232703 | 52 | 0 | 0.0 | 0.0 | 0.00 | 0.00 | 0.00 | 95 | 1003.7 |
| 20260901231803 | 52 | 0 | 0.0 | 0.0 | 0.00 | 0.00 | 0.00 | 94 | 1003.8 |
| 20260901230903 | 52 | 0 | 0.0 | 0.0 | 0.00 | 0.00 | 0.00 | 94 | 1004.0 |
| 20260901230005 | 52 | 0 | 0.0 | 0.0 | 0.00 | 0.00 | 0.00 | 95 | 1003.9 |
| 20260901225403 | 52 | 0 | 0.0 | 0.0 | 0.00 | 0.00 | 0.00 | 95 | 1003.8 |
| 20260901224524 | 52 | 0 | 0.0 | 0.0 | 0.00 | 0.00 | 0.00 | 95 | 1003.7 |
| 20260901223603 | 53 | 0 | 0.0 | 0.0 | 0.00 | 0.00 | 0.00 | 94 | 1003.8 |
| 20260901222705 | 53 | 0 | 0.0 | 0.0 | 0.00 | 0.00 | 0.00 | 94 | 1003.9 |
| 20260901221805 | 53 | 0 | 0.0 | 0.0 | 0.00 | 0.00 | 0.00 | 93 | 1004.1 |
| 20260901220903 | 54 | 90 | 0.0 | 2.0 | 0.00 | 0.00 | 0.00 | 92 | 1004.0 |
| 20260901220004 | 54 | 90 | 0.0 | 2.0 | 0.00 | 0.00 | 0.00 | 91 | 1004.2 |
| 20260901215403 | 54 | 90 | 0.0 | 2.0 | 0.00 | 0.00 | 0.00 | 91 | 1004.1 |
| 20260901214505 | 54 | 0 | 0.0 | 0.0 | 0.00 | 0.00 | 0.00 | 91 | 1004.0 |
| 20260901213624 | 53 | 0 | 0.0 | 0.0 | 0.00 | 0.00 | 0.00 | 90 | 1003.9 |
| 20260901212703 | 54 | 90 | 0.0 | 2.0 | 0.00 | 0.00 | 0.00 | 90 | 1004.0 |
| 20260901211803 | 54 | 95 | 1.0 | 2.0 | 0.00 | 0.00 | 0.00 | 90 | 1003.9 |
| 20260901210903 | 54 | 0 | 0.0 | 0.0 | 0.00 | 0.00 | 0.00 | 92 | 1004.0 |
| 20260901210005 | 54 | 0 | 0.0 | 0.0 | 0.00 | 0.00 | 0.00 | 91 | 1004.2 |
| 20260901205425 | 54 | 0 | 0.0 | 0.0 | 0.00 | 0.00 | 0.00 | 90 | 1004.0 |
| 20260901204524 | 55 | 0 | 0.0 | 0.0 | 0.00 | 0.00 | 0.00 | 89 | 1004.1 |
| 20260901203605 | 55 | 0 | 0.0 | 0.0 | 0.00 | 0.00 | 0.00 | 88 | 1004.3 |
| 20260901202703 | 55 | 0 | 0.0 | 0.0 | 0.00 | 0.00 | 0.00 | 88 | 1004.0 |
| 20260901201824 | 56 | 0 | 0.0 | 0.0 | 0.00 | 0.00 | 0.00 | 88 | 1004.1 |
| 20260901200903 | 56 | 0 | 0.0 | 0.0 | 0.00 | 0.00 | 0.00 | 87 | 1003.9 |
| 20260901200003 | 56 | 0 | 0.0 | 0.0 | 0.00 | 0.00 | 0.00 | 86 | 1003.9 |
| 20260901195405 | 56 | 0 | 0.0 | 0.0 | 0.00 | 0.00 | 0.00 | 85 | 1003.9 |
| 20260901194504 | 57 | 0 | 0.0 | 0.0 | 0.00 | 0.00 | 0.00 | 84 | 1004.1 |
| 20260901193603 | 57 | 0 | 0.0 | 0.0 | 0.00 | 0.00 | 0.00 | 83 | 1003.9 |
| 20260901192703 | 57 | 0 | 0.0 | 0.0 | 0.00 | 0.00 | 0.00 | 84 | 1003.9 |
| 20260901191805 | 58 | 0 | 0.0 | 0.0 | 0.00 | 0.00 | 0.00 | 81 | 1004.1 |
| 20260901190926 | 58 | 0 | 0.0 | 0.0 | 0.00 | 0.00 | 0.00 | 82 | 1004.0 |
| 20260901190024 | 57 | 0 | 0.0 | 0.0 | 0.00 | 0.00 | 0.00 | 80 | 1004.2 |
| 20260901185405 | 58 | 0 | 0.0 | 0.0 | 0.00 | 0.00 | 0.00 | 79 | 1004.1 |
| 20260901184503 | 59 | 0 | 0.0 | 0.0 | 0.00 | 0.00 | 0.00 | 76 | 1003.7 |
| 20260901183605 | 59 | 0 | 0.0 | 0.0 | 0.00 | 0.00 | 0.00 | 74 | 1003.8 |
| 20260901182704 | 60 | 0 | 0.0 | 0.0 | 0.00 | 0.00 | 0.00 | 73 | 1003.8 |
| 20260901181803 | 61 | 112 | 0.0 | 2.0 | 0.00 | 0.00 | 0.00 | 70 | 1003.9 |
| 20260901180904 | 63 | 112 | 1.0 | 2.0 | 0.00 | 0.00 | 0.00 | 67 | 1003.8 |
| 20260901180003 | 64 | 0 | 0.0 | 0.0 | 0.00 | 0.00 | 0.00 | 62 | 1003.9 |
| 20260901175403 | 64 | 0 | 0.0 | 0.0 | 0.00 | 0.00 | 0.00 | 61 | 1003.5 |
| 20260901174524 | 65 | 0 | 0.0 | 0.0 | 0.00 | 0.00 | 0.00 | 62 | 1003.9 |
| 20260901173603 | 66 | 112 | 0.0 | 2.0 | 0.00 | 0.00 | 0.00 | 61 | 1003.8 |
| 20260901172703 | 67 | 112 | 0.0 | 2.0 | 0.00 | 0.00 | 0.00 | 59 | 1003.5 |
| 20260901171803 | 68 | 112 | 0.0 | 2.0 | 0.00 | 0.00 | 0.00 | 56 | 1003.8 |
| 20260901170904 | 69 | 107 | 0.0 | 2.0 | 0.00 | 0.00 | 0.00 | 51 | 1003.8 |
| 20260901170025 | 71 | 112 | 0.0 | 2.0 | 0.00 | 0.00 | 0.00 | 50 | 1003.9 |
| 20260901165404 | 73 | 0 | 0.0 | 0.0 | 0.00 | 0.00 | 0.00 | 43 | 1003.8 |
| 20260901164526 | 73 | 90 | 0.0 | 2.0 | 0.00 | 0.00 | 0.00 | 44 | 1003.7 |
| 20260901163603 | 72 | 90 | 0.0 | 2.0 | 0.00 | 0.00 | 0.00 | 46 | 1003.9 |
| 20260901162726 | 71 | 90 | 1.0 | 2.0 | 0.00 | 0.00 | 0.00 | 47 | 1003.8 |
| 20260901161805 | 73 | 96 | 1.0 | 4.0 | 0.00 | 0.00 | 0.00 | 44 | 1003.9 |
| 20260901160903 | 72 | 90 | 1.0 | 4.0 | 0.00 | 0.00 | 0.00 | 45 | 1003.8 |
| 20260901160003 | 71 | 90 | 2.0 | 4.0 | 0.00 | 0.00 | 0.00 | 45 | 1003.8 |
| 20260901155406 | 72 | 93 | 2.0 | 4.0 | 0.00 | 0.00 | 0.00 | 45 | 1003.9 |
| 20260901154503 | 71 | 108 | 2.0 | 4.0 | 0.00 | 0.00 | 0.00 | 44 | 1003.8 |
| 20260901153603 | 72 | 113 | 2.0 | 4.0 | 0.00 | 0.00 | 0.00 | 42 | 1003.9 |
| 20260901152724 | 73 | 25 | 2.0 | 4.0 | 0.00 | 0.00 | 0.00 | 41 | 1003.8 |
| 20260901151803 | 74 | 286 | 1.0 | 4.0 | 0.00 | 0.00 | 0.00 | 39 | 1003.8 |
| 20260901150903 | 75 | 309 | 3.0 | 4.0 | 0.00 | 0.00 | 0.00 | 38 | 1004.1 |
| 20260901150003 | 76 | 328 | 1.0 | 4.0 | 0.00 | 0.00 | 0.00 | 37 | 1004.0 |
| 20260901145404 | 76 | 7 | 2.0 | 4.0 | 0.00 | 0.00 | 0.00 | 37 | 1003.9 |
| 20260901144503 | 76 | 9 | 2.0 | 4.0 | 0.00 | 0.00 | 0.00 | 37 | 1003.8 |
| 20260901143603 | 75 | 329 | 1.0 | 6.0 | 0.00 | 0.00 | 0.00 | 38 | 1003.9 |